Regional Weather Roundup
Issued by NWS

Home | Current Version | Previous Version | Text Only | Print | Product List | Glossary Off
Versions: 1 2 3 4 5 6 7 8 9 10 11 12 13 14 15 16 17 18 19 20 21 22 23 24 25 26 27 28 29 30 31 32 33 34 35 36 37 38 39 40 41 42 43 44 45 46 47 48 49 50

000
ASUS45 KSLC 291310
RWRUT

UTAH REGIONAL WEATHER ROUNDUP
NATIONAL WEATHER SERVICE SALT LAKE CITY UT
700 AM MDT FRI AUG 29 2014

UTZ001>011-023>025-291400-

NORTHERN UTAH

CITY           SKY/WX    TMP DP  RH WIND       PRES   REMARKS
HILL AFB       CLEAR     59  43  55 E18       30.11S
LOGAN          PTCLDY    51  48  89 N6        30.10S
OGDEN          CLEAR     59  43  55 S8        30.09S
PROVO AIRPORT  CLEAR     54  45  71 CALM      30.14S
SALT LAKE CITY PTCLDY    61  49  64 SE8       30.08S
VERNAL         CLEAR     52  45  77 W6        30.18R
WENDOVER       CLEAR     61  37  41 CALM      30.07R
HEBER CITY     CLEAR     43  41  93 CALM      30.23R
WEST JORDAN    CLEAR     61  52  72 S8        30.12R

$$

UTZ012>022-026-027-291400-

SOUTHERN UTAH

CITY           SKY/WX    TMP DP  RH WIND       PRES   REMARKS
BRYCE CANYON   PTCLDY    39  35  86 W7        30.34R WCI  34
CEDAR CITY     CLEAR     52  37  56 CALM      30.17S
MILFORD        CLEAR     49  41  74 S7        30.14S
MOAB/CYNLANDS  CLEAR     61  51  70 SE6       30.12R
PRICE          CLEAR     53  42  66 E3        30.21R
ST GEORGE      SUNNY     66  43  42 S5        30.03R

$$

REGIONAL REPORTS     COLORADO/ARIZONA

CITY           SKY/WX    TMP DP  RH WIND       PRES   REMARKS
CRAIG, CO      CLEAR     45  43  93 CALM      30.24R
GRAND JUNCTION PTCLDY    56  51  84 SE10      30.17R
RIFLE          PTCLDY    50  47  89 CALM      30.25R
MONTROSE       PTCLDY    50  44  80 SE8       30.26R
CORTEZ         CLEAR     43  40  89 NE3       30.23R
PAGE, AZ       CLEAR     65  42  43 S3        30.11R
GRAND CANYON   CLEAR     45  39  79 VRB5      30.26
KINGMAN        CLEAR     65  36  34 S13       30.02R
FLAGSTAFF      CLEAR     42  39  89 CALM      30.29R

$$

REGIONAL REPORTS    NEVADA/IDAHO/WYOMING

CITY           SKY/WX    TMP DP  RH WIND       PRES   REMARKS
LAS VEGAS, NV  CLEAR     78  36  21 S9        29.87R
ELY            PTCLDY    47  39  74 S12       30.20S
ELKO           CLEAR     51  36  56 NE3       30.12S
POCATELLO, ID  CLEAR     55  46  71 VRB3      30.09R
BURLEY         CLEAR     57  45  64 SE5       30.04R
EVANSTON, WY   CLEAR     49  37  63 S9        30.27R
ROCK SPRINGS   PTCLDY    52  41  66 SW10      30.24R

$$


USA.gov is the U.S. government's official web portal to all federal, state and local government web resources and services.